Location: Unspecified
(0.0000°N, 0.0000°E)
Time: 14:31:34
(UTC+02:00)

Tiros 1 despin weight - Visible Passes

Search period start: 22 October 2014 00:00
Search period end: 31 October 2014 23:00
Orbit: 601 x 652 km, 48.2° (Epoch: 20 October)

Date Brightness Start Highest point End Pass type
(mag) Time Alt. Az. Time Alt. Az. Time Alt. Az.
22 Oct ? 06:19:48 10° SSE 06:22:20 14° SE 06:24:51 10° E visible
22 Oct ? 20:09:43 10° WNW 20:13:24 26° SW 20:17:08 10° S visible
23 Oct ? 06:37:09 10° SSW 06:41:33 38° SE 06:45:55 10° ENE visible
24 Oct ? 06:55:57 10° SW 07:00:41 73° NW 07:05:22 10° NNE visible
25 Oct ? 05:36:18 19° SSE 05:38:13 25° SE 05:42:05 10° ENE visible
25 Oct ? 07:15:54 10° WSW 07:19:49 26° NW 07:23:42 10° N visible
26 Oct ? 04:57:04 69° SSE 04:57:21 71° SE 05:02:03 10° NE visible
27 Oct ? 05:17:31 34° NNW 05:17:31 34° NNW 05:20:51 10° NNE visible
28 Oct ? 05:37:37 12° NNW 05:37:37 12° NNW 05:38:11 10° NNW visible
